EW2849 Weather Reports


Display with metric or nautical units.
time (UTC)temp
F
wind
direction
speed
MPH
gust
MPH
rain 1hr
in
rain 24hr
in
rain mn
in
humidity
%
barometer
mb
20260905152144 71 286 5.0 13.0 0.00 0.00 0.00 68 1022.4
20260905150942 71 304 10.0 13.0 0.00 0.00 0.00 68 1022.4
20260905145741 71 270 6.0 9.0 0.00 0.00 0.00 68 1022.4
20260905144540 72 315 10.0 13.0 0.00 0.00 0.00 68 1022.4
20260905143359 73 298 8.0 9.0 0.00 0.00 0.00 68 1022.4
20260905142137 73 270 9.0 11.0 0.00 0.00 0.00 68 1022.4
20260905140936 72 270 9.0 12.0 0.00 0.00 0.00 69 1022.4
20260905135735 72 275 10.0 13.0 0.00 0.00 0.00 69 1022.4
20260905134534 72 305 9.0 12.0 0.00 0.00 0.00 69 1022.4
20260905133333 72 293 10.0 13.0 0.00 0.00 0.00 68 1022.4
20260905132131 72 293 11.0 14.0 0.00 0.00 0.00 67 1022.4
20260905130930 73 305 9.0 16.0 0.00 0.00 0.00 66 1022.4
20260905125729 72 270 7.0 11.0 0.00 0.00 0.00 68 1022.4
20260905124528 72 310 8.0 12.0 0.00 0.00 0.00 68 1022.4
20260905123327 72 293 10.0 14.0 0.00 0.00 0.00 68 1022.4
20260905122125 72 293 10.0 15.0 0.00 0.00 0.00 69 1022.4
20260905120924 71 293 11.0 15.0 0.00 0.00 0.00 70 1022.4
20260905115723 69 296 11.0 15.0 0.00 0.00 0.00 71 1021.5
20260905114522 70 308 9.0 14.0 0.00 0.00 0.00 70 1022.4
20260905113320 71 284 8.0 13.0 0.00 0.00 0.00 71 1022.4
20260905112119 69 293 12.0 15.0 0.00 0.00 0.00 72 1022.4
20260905110919 68 293 9.0 13.0 0.00 0.00 0.00 74 1022.4
20260905105758 68 303 8.0 9.0 0.00 0.00 0.00 76 1022.4
20260905104516 68 293 9.0 14.0 0.00 0.00 0.00 75 1022.4
20260905103315 69 293 9.0 13.0 0.00 0.00 0.00 76 1022.4
20260905102215 68 286 7.0 12.0 0.00 0.00 0.00 77 1022.4
20260905101014 69 315 10.0 13.0 0.00 0.00 0.00 78 1022.4
20260905095812 69 293 10.0 12.0 0.00 0.00 0.00 81 1022.4
20260905094611 68 293 8.0 13.0 0.00 0.00 0.00 81 1022.4
20260905093409 69 286 7.0 13.0 0.00 0.00 0.00 82 1022.4
20260905092227 69 293 7.0 12.0 0.00 0.00 0.00 84 1019.0
20260905091007 68 274 9.0 12.0 0.00 0.00 0.00 86 1019.0
20260905085805 67 270 9.0 14.0 0.00 0.00 0.00 89 1019.0
20260905084604 66 277 8.0 13.0 0.00 0.00 0.00 90 1019.0
20260905083403 65 270 9.0 12.0 0.00 0.00 0.00 91 1019.0
20260905082201 65 270 6.0 9.0 0.00 0.00 0.00 93 1019.0
20260905081000 64 265 6.0 9.0 0.00 0.00 0.00 95 1019.0
20260905075759 63 270 7.0 9.0 0.00 0.00 0.00 96 1019.0
20260905074558 63 270 5.0 8.0 0.00 0.00 0.00 97 1019.0
20260905073417 61 259 7.0 9.0 0.00 0.00 0.00 97 1019.0
20260905072155 61 270 6.0 9.0 0.00 0.00 0.00 97 1019.0
20260905070954 60 270 8.0 11.0 0.00 0.00 0.00 98 1019.0
20260905065813 59 285 4.0 7.0 0.00 0.00 0.00 98 1019.0
20260905064553 59 270 4.0 7.0 0.00 0.00 0.00 98 1019.0
20260905063351 59 270 5.0 9.0 0.00 0.00 0.00 98 1018.2
20260905062150 59 263 5.0 9.0 0.00 0.00 0.00 98 1019.0
20260905060949 58 270 4.0 9.0 0.00 0.00 0.00 98 1019.0
20260905055748 58 252 6.0 7.0 0.00 0.00 0.00 98 1019.0
20260905054547 58 256 5.0 10.0 0.00 0.00 0.00 98 1019.0
20260905053346 58 248 5.0 7.0 0.00 0.00 0.00 98 1019.0
20260905052144 57 270 4.0 7.0 0.00 0.00 0.00 98 1019.0
20260905050943 57 252 4.0 5.0 0.00 0.00 0.00 98 1019.0
20260905045742 57 253 2.0 5.0 0.00 0.00 0.00 98 1019.0
20260905044541 58 270 2.0 3.0 0.00 0.00 0.00 98 1019.0
20260905043340 58 270 5.0 9.0 0.00 0.00 0.00 98 1019.0
20260905042139 58 270 2.0 5.0 0.00 0.00 0.00 97 1016.5
20260905040938 58 270 3.0 6.0 0.00 0.00 0.00 97 1019.0
20260905035757 58 270 4.0 9.0 0.00 0.00 0.00 97 1017.3
20260905034536 58 270 3.0 5.0 0.00 0.00 0.00 97 1016.5
20260905033335 58 283 3.0 4.0 0.00 0.00 0.00 97 1019.0
20260905032153 58 281 3.0 5.0 0.00 0.00 0.00 96 1015.6
20260905030933 58 270 4.0 6.0 0.00 0.00 0.00 96 1015.6
20260905025731 58 270 3.0 7.0 0.00 0.00 0.00 96 1015.6
20260905024530 59 270 4.0 6.0 0.00 0.00 0.00 96 1015.6
20260905023349 59 270 4.0 7.0 0.00 0.00 0.00 96 1015.6
20260905022811 58 270 5.0 7.0 0.00 0.00 0.00 96 1015.6
20260905021610 58 257 4.0 7.0 0.00 0.00 0.00 95 1015.6
20260905020409 59 270 4.0 6.0 0.00 0.00 0.00 95 1015.6
20260905015208 59 285 3.0 6.0 0.00 0.00 0.00 95 1015.6
20260905014006 59 270 3.0 5.0 0.00 0.00 0.00 95 1015.6
20260905012806 59 270 3.0 4.0 0.00 0.00 0.00 95 1015.6
20260905011624 59 270 6.0 7.0 0.00 0.00 0.00 95 1015.6
20260905010403 59 270 4.0 7.0 0.00 0.00 0.00 95 1015.6
20260905005242 59 270 4.0 7.0 0.00 0.00 0.00 95 1015.6
20260905004001 59 270 5.0 7.0 0.00 0.00 0.00 95 1015.6
20260905002800 59 270 3.0 5.0 0.00 0.00 0.00 95 1015.6
20260905001559 59 270 5.0 9.0 0.00 0.00 0.00 95 1015.6
20260905000358 59 270 5.0 6.0 0.00 0.00 0.00 95 1015.6
20260904235157 59 270 5.0 6.0 0.00 0.00 0.00 95 1015.6
20260904233956 60 264 4.0 5.0 0.00 0.00 0.00 95 1015.6
20260904232755 60 262 3.0 7.0 0.00 0.00 0.00 95 1015.6
20260904231554 60 263 3.0 5.0 0.00 0.00 0.00 94 1015.6
20260904230353 60 270 5.0 7.0 0.00 0.00 0.00 94 1015.6
20260904225152 61 260 2.0 4.0 0.00 0.00 0.00 93 1015.6
20260904223951 61 270 2.0 3.0 0.00 0.00 0.00 93 1015.6
20260904222750 62 273 3.0 5.0 0.00 0.00 0.00 92 1015.6
20260904221549 62 281 3.0 5.0 0.00 0.00 0.00 92 1015.6
20260904220347 63 270 5.0 7.0 0.00 0.00 0.00 91 1015.6
20260904215203 63 270 4.0 7.0 0.00 0.00 0.00 91 1015.6
20260904214002 64 270 5.0 5.0 0.00 0.00 0.00 90 1015.6
20260904212801 64 258 4.0 9.0 0.00 0.00 0.00 89 1015.6
20260904211600 65 270 6.0 9.0 0.00 0.00 0.00 89 1015.6
20260904210358 65 270 5.0 7.0 0.00 0.00 0.00 89 1015.6
20260904205217 65 287 6.0 11.0 0.00 0.00 0.00 90 1015.6
20260904203957 65 286 7.0 10.0 0.00 0.00 0.00 92 1015.6
20260904202755 65 270 4.0 6.0 0.00 0.00 0.00 92 1015.6
20260904201554 66 270 6.0 7.0 0.00 0.00 0.00 92 1015.6
20260904200353 66 286 6.0 9.0 0.00 0.00 0.00 93 1015.6
20260904195152 66 293 7.0 11.0 0.00 0.00 0.00 93 1015.6
20260904193951 66 270 6.0 9.0 0.00 0.00 0.00 93 1015.6
20260904192749 66 285 6.0 9.0 0.00 0.00 0.00 94 1015.6
20260904191609 66 293 6.0 8.0 0.00 0.00 0.00 94 1015.6
20260904190408 66 270 5.0 9.0 0.00 0.00 0.00 94 1015.6
20260904185147 66 293 7.0 11.0 0.00 0.00 0.00 95 1015.6
20260904183945 66 293 6.0 11.0 0.00 0.00 0.00 95 1012.2
20260904182743 66 293 9.0 13.0 0.00 0.00 0.00 96 1012.2
20260904181542 66 267 7.0 12.0 0.00 0.00 0.00 96 1012.2
20260904180341 67 265 7.0 14.0 0.00 0.00 0.00 98 1012.2
20260904175140 67 270 8.0 12.0 0.00 0.00 0.00 98 1012.2
20260904173959 67 270 7.0 10.0 0.00 0.00 0.00 98 1012.2
20260904172738 67 270 6.0 7.0 0.00 0.00 0.00 99 1012.2
20260904171537 67 270 4.0 7.0 0.00 0.00 0.00 99 1012.2
20260904170335 67 270 4.0 8.0 0.00 0.00 0.00 99 1012.2
20260904165135 67 288 8.0 11.0 0.00 0.00 0.00 99 1012.2
20260904163934 67 270 8.0 13.0 0.00 0.00 0.00 99 1012.2
20260904162733 67 284 9.0 24.0 0.00 0.00 0.00 100 1012.2
20260904161531 67 270 10.0 17.0 0.00 0.00 0.00 100 1012.2
20260904160331 67 270 9.0 11.0 0.00 0.00 0.00 100 1012.2
20260904155130 66 274 9.0 12.0 0.00 0.00 0.00 100 1012.2
20260904153928 66 279 8.0 14.0 0.00 0.00 0.00 100 1012.2